Powrót do katalogu

STARLINK-1337

AktywnyŁącznośćVLEO
NORAD 45582·PAYLOAD·🇺🇸 United States

Wystrzelony Apr 22, 2020 z Cape Canaveral Space Force Station

Loading…

Następne Przeloty (najbliższe 24 godziny)

TLE

ŚwieżeSource: CelesTrak SupGP

Epoka: Sep 14, 2026, 12:44 UTC

1 45582C 20025BD  26257.53104167  .00198960  00000+0  44989-3 0  2578
2 45582  53.0345 200.2963 0005627  87.8537 273.1869 15.96729820    12

Śledź STARLINK-1337 w czasie rzeczywistym z AllMySat

Download on the App Store